Weather History for Petersburg, WV

Change the Weather History Date:

Monday, September 16, 2013

  Actual Average (KEKN) Record (KEKN)
Temperature  
Mean Temperature 59 °F 62 °F  
Max Temperature 68 °F 74 °F 89 °F (1936)
Min Temperature 50 °F 51 °F 35 °F (1946)
Degree Days  
Heating Degree Days 6 4  
Month to date heating degree days 39  
Since 1 July heating degree days 69  
Cooling Degree Days 0 1  
Month to date cooling degree days 34  
Year to date cooling degree days 460  
Growing Degree Days 9 (Base 50)    
Moisture  
Dew Point 56 °F    
Average Humidity 88    
Maximum Humidity 97    
Minimum Humidity 61    
Precipitation  
Precipitation 0.02 in 0.13 in 1.68 in (1934)
Month to date precipitation 1.96  
Year to date precipitation 34.77  
Snow  
Snow 0.00 in - - ()
Month to date snowfall  
Since 1 September snowfall  
Snow Depth -    
Sea Level Pressure  
Sea Level Pressure 30.18 in    
Wind  
Wind Speed 0 mph (North)    
Max Wind Speed 0 mph    
Max Gust Speed -    
Visibility 8 miles    
Events Rain    
T = Trace of Precipitation, MM = Missing Value Source: NWS Daily Summary

Daily Weather History Graph

Daily Weather History Graph

Search for Another Location

Airport:

Trip Planner

Search our weather history database for the weather conditions in past years. The results will help you decide how hot, cold, wet, or windy it might be!

Date:

Astronomy

Sep. 16, 2013 Rise Set
Actual Time 6:59 AM EDT 7:22 PM EDT
Civil Twilight 6:32 AM EDT 7:49 PM EDT
Nautical Twilight 6:00 AM EDT 8:20 PM EDT
Astronomical Twilight 5:28 AM EDT 8:53 PM EDT
Moon 5:29 PM EDT (9/16) 3:44 AM EDT (9/16)
Length of Visible Light 13h 17m
Length of Day
12h 23m
Waxing Gibbous, 90% of the Moon is Illuminated
Sep 16
Waxing Gibbous
Sep 19
Full
Sep 26
Last Quarter
Oct 4
New
Oct 11
First Quarter

Hourly Weather History & Observations

Time (EDT) Temp. Dew Point Humidity Pressure Visibility Wind Dir Wind Speed Gust Speed Precip Events Conditions
12:15 AM 57.4 °F 55.9 °F 95% 30.12 in 7.0 mi Calm Calm - N/A   Scattered Clouds
12:35 AM 56.5 °F 55.4 °F 96% 30.12 in 7.0 mi Calm Calm - N/A   Clear
12:55 AM 56.3 °F 55.2 °F 96% 30.12 in 7.0 mi Calm Calm - N/A   Clear
1:15 AM 56.1 °F 55.0 °F 96% 30.12 in 5.0 mi Calm Calm - N/A   Clear
1:35 AM 55.9 °F 54.9 °F 96% 30.12 in 3.0 mi Calm Calm - N/A   Clear
1:55 AM 55.0 °F 54.0 °F 96% 30.12 in 7.0 mi Calm Calm - N/A   Scattered Clouds
2:15 AM 55.4 °F 54.3 °F 96% 30.11 in 7.0 mi Calm Calm - N/A   Clear
2:35 AM 55.4 °F 54.5 °F 97% 30.11 in 7.0 mi Calm Calm - N/A   Scattered Clouds
2:55 AM 55.0 °F 54.0 °F 96% 30.11 in 5.0 mi Calm Calm - N/A   Scattered Clouds
3:15 AM 55.6 °F 54.7 °F 97% 30.10 in 4.0 mi Calm Calm - N/A   Scattered Clouds
3:35 AM 56.5 °F 55.6 °F 97% 30.09 in 5.0 mi Calm Calm - N/A   Scattered Clouds
3:55 AM 56.8 °F 55.9 °F 97% 30.09 in 5.0 mi Calm Calm - N/A   Mostly Cloudy
4:15 AM 57.4 °F 56.5 °F 97% 30.09 in 5.0 mi Calm Calm - N/A   Scattered Clouds
4:35 AM 57.4 °F 56.5 °F 97% 30.08 in 5.0 mi Calm Calm - N/A   Scattered Clouds
4:55 AM 56.5 °F 55.6 °F 97% 30.07 in 5.0 mi Calm Calm - N/A   Clear
5:15 AM 56.5 °F 55.6 °F 97% 30.08 in 7.0 mi Calm Calm - N/A   Mostly Cloudy
5:35 AM 57.4 °F 56.5 °F 97% 30.09 in 7.0 mi Calm Calm - N/A   Overcast
5:55 AM 57.6 °F 56.7 °F 97% 30.09 in 7.0 mi Calm Calm - N/A   Mostly Cloudy
6:15 AM 58.6 °F 57.7 °F 97% 30.09 in 7.0 mi Calm Calm - N/A   Overcast
6:35 AM 58.6 °F 57.7 °F 97% 30.12 in 7.0 mi Calm Calm - N/A Rain Rain
6:55 AM 59.5 °F 58.5 °F 96% 30.12 in 10.0 mi Calm Calm - N/A Rain Light Rain
7:15 AM 60.3 °F 59.0 °F 96% 30.14 in 7.0 mi Calm Calm - 0.01 in Rain Rain
7:35 AM 60.8 °F 58.8 °F 93% 30.14 in 7.0 mi Calm Calm - 0.01 in Rain Light Rain
7:55 AM 60.6 °F 59.0 °F 94% 30.15 in 5.0 mi Calm Calm - 0.02 in   Light Drizzle
8:15 AM 61.2 °F 59.4 °F 94% 30.15 in 10.0 mi Calm Calm - N/A   Scattered Clouds
8:35 AM 61.3 °F 59.5 °F 94% 30.16 in 7.0 mi Calm Calm - N/A   Light Drizzle
8:55 AM 60.8 °F 58.8 °F 93% 30.17 in 7.0 mi Calm Calm - N/A Rain Light Rain
9:15 AM 60.8 °F 58.6 °F 93% 30.17 in 7.0 mi Calm Calm - N/A   Overcast
9:35 AM 60.4 °F 58.5 °F 93% 30.17 in 7.0 mi Calm Calm - N/A   Overcast
9:55 AM 59.5 °F 57.6 °F 93% 30.18 in 7.0 mi Calm Calm - N/A   Overcast
10:15 AM 59.5 °F 57.0 °F 91% 30.18 in 10.0 mi Calm Calm - N/A   Overcast
10:35 AM 60.1 °F 57.4 °F 91% 30.18 in 10.0 mi Calm Calm - N/A   Overcast
10:55 AM 60.3 °F 57.4 °F 90% 30.18 in 10.0 mi Calm Calm - N/A   Overcast
11:15 AM 61.0 °F 58.1 °F 90% 30.19 in 10.0 mi Calm Calm - N/A   Overcast
11:35 AM 61.5 °F 58.3 °F 89% 30.20 in 10.0 mi Calm Calm - N/A   Overcast
11:55 AM 61.9 °F 58.8 °F 90% 30.21 in 5.0 mi Calm Calm - N/A Rain Rain
12:15 PM 61.5 °F 59.0 °F 91% 30.20 in 5.0 mi Calm Calm - N/A   Overcast
12:35 PM 62.4 °F 59.4 °F 90% 30.20 in 10.0 mi Calm Calm - N/A   Overcast
12:55 PM 63.7 °F 60.3 °F 89% 30.20 in 10.0 mi Calm Calm - N/A   Overcast
1:15 PM 64.2 °F 60.3 °F 87% 30.20 in 10.0 mi Calm Calm - N/A   Overcast
1:35 PM 65.3 °F 60.1 °F 83% 30.20 in 10.0 mi Calm Calm - N/A   Overcast
1:55 PM 64.9 °F 59.0 °F 81% 30.20 in 10.0 mi Calm Calm - N/A   Overcast
2:15 PM 64.6 °F 57.9 °F 79% 30.20 in 10.0 mi Calm Calm - N/A   Overcast
2:35 PM 64.6 °F 58.3 °F 80% 30.20 in 10.0 mi Calm Calm - N/A   Overcast
2:55 PM 64.0 °F 57.9 °F 80% 30.20 in 10.0 mi Calm Calm - N/A   Overcast
3:15 PM 64.4 °F 57.9 °F 79% 30.20 in 10.0 mi Calm Calm - N/A   Overcast
3:35 PM 64.9 °F 57.2 °F 76% 30.20 in 10.0 mi Calm Calm - N/A   Overcast
3:55 PM 64.9 °F 58.6 °F 80% 30.19 in 10.0 mi Calm Calm - N/A   Overcast
4:15 PM 65.5 °F 54.3 °F 67% 30.19 in 10.0 mi Calm Calm - N/A   Overcast
4:35 PM 67.5 °F 55.4 °F 65% 30.19 in 10.0 mi Calm Calm - N/A   Overcast
4:55 PM 68.5 °F 54.5 °F 61% 30.19 in 10.0 mi Calm Calm - N/A   Mostly Cloudy
5:15 PM 67.8 °F 54.9 °F 63% 30.19 in 10.0 mi Calm Calm - N/A   Scattered Clouds
5:35 PM 68.7 °F 55.2 °F 62% 30.19 in 10.0 mi Calm Calm - N/A   Mostly Cloudy
5:55 PM 68.4 °F 55.4 °F 63% 30.20 in 10.0 mi Calm Calm - N/A   Overcast
6:15 PM 68.2 °F 55.0 °F 63% 30.20 in 10.0 mi Calm Calm - N/A   Overcast
6:35 PM 66.2 °F 53.4 °F 63% 30.21 in 10.0 mi Calm Calm - N/A   Scattered Clouds
6:55 PM 64.2 °F 54.5 °F 71% 30.21 in 10.0 mi Calm Calm - N/A   Clear
7:15 PM 61.0 °F 55.2 °F 81% 30.21 in 10.0 mi Calm Calm - N/A   Clear
7:35 PM 58.6 °F 54.9 °F 87% 30.22 in 10.0 mi Calm Calm - N/A   Clear
7:55 PM 57.4 °F 54.3 °F 90% 30.22 in 10.0 mi Calm Calm - N/A   Clear
8:15 PM 57.0 °F 54.0 °F 89% 30.23 in 10.0 mi Calm Calm - N/A   Clear
8:35 PM 54.5 °F 52.0 °F 91% 30.25 in 10.0 mi Calm Calm - N/A   Clear
8:55 PM 53.6 °F 51.4 °F 92% 30.25 in 10.0 mi Calm Calm - N/A   Clear
9:15 PM 52.7 °F 50.9 °F 94% 30.26 in 10.0 mi Calm Calm - N/A   Clear
9:35 PM 52.3 °F 50.9 °F 95% 30.27 in 10.0 mi Calm Calm - N/A   Clear
9:55 PM 51.6 °F 50.2 °F 95% 30.27 in 7.0 mi Calm Calm - N/A   Clear
10:15 PM 51.4 °F 50.2 °F 95% 30.27 in 3.0 mi Calm Calm - N/A   Clear
10:35 PM 51.8 °F 50.5 °F 95% 30.28 in 5.0 mi Calm Calm - N/A   Clear
10:55 PM 50.4 °F 49.1 °F 95% 30.28 in 4.0 mi Calm Calm - N/A   Clear
11:15 PM 51.3 °F 50.0 °F 95% 30.29 in 7.0 mi Calm Calm - N/A   Clear
11:35 PM 51.8 °F 50.9 °F 97% 30.29 in 4.0 mi Calm Calm - N/A   Scattered Clouds
11:55 PM 51.6 °F 50.5 °F 96% 30.29 in 7.0 mi Calm Calm - N/A   Scattered Clouds